Simultaneous Nadir Overpasses (SNOs) Predictions

Prediction of SNOs between NOAA-19 and TERRA Satellite Orbit:

Table of predicted SNOs for the next 14.0 days since TLE Epoch: 3/23/2017
Index Date (NOAA-19) Time (NOAA-19) Lat,Lon (NOAA-19) SZA (NOAA-19 ) Date (TERRA) Time (TERRA) Lat,Lon (TERRA) SZA (TERRA ) Distance(km) Time Diff (sec)
1 03/24/2017 19:53:39 75.17,-108.31 73.53 03/24/2017 19:54:28 75.18,-108.19 73.55 3.66 49
2 03/24/2017 20:44:32 -75.09, 59.22 106.57 03/24/2017 20:43:57 -75.11, 59.27 106.55 2.98 35
3 03/27/2017 01:27:25 -75.16, -11.66 107.35 03/27/2017 01:28:14 -75.15, -11.70 107.36 1.65 49
4 03/27/2017 02:18:30 75.09, 155.79 72.57 03/27/2017 02:17:41 75.07, 155.73 72.54 2.71 49
5 03/29/2017 07:01:23 75.18, 84.86 71.81 03/29/2017 07:01:57 75.16, 84.89 71.79 2.44 34
6 03/29/2017 07:52:17 -75.11,-107.67 108.27 03/29/2017 07:51:26 -75.09,-107.65 108.30 2.26 51
7 03/31/2017 12:35:10 -75.19,-178.57 109.04 03/31/2017 12:35:42 -75.18,-178.48 109.04 2.91 32
8 03/31/2017 13:26:14 75.11, -11.07 70.87 03/31/2017 13:25:09 75.10, -11.06 70.86 0.72 65
9 04/02/2017 18:09:06 75.16, -81.90 70.09 04/02/2017 18:09:25 75.19, -81.89 70.12 3.25 19
10 04/02/2017 19:00:01 -75.11, 85.54 109.98 04/02/2017 18:58:54 -75.13, 85.58 109.97 2.83 67
11 04/04/2017 23:42:54 -75.19, 14.61 110.73 04/04/2017 23:43:11 -75.17, 14.62 110.75 2.53 17
